Henry E Rohlsen Airport


Codes: TISX/STX
Name: Henry E Rohlsen Airport
City: Christiansted
Country: U.S. Virgin Islands
Elevation: 74 ft.
Wikipedia:

Photos at Henry E Rohlsen Airport


   Photos courtesy of SpottingLog. You can add your own sightings and photos by signing up for a free trial today.



No photos found.

Weather at Henry E Rohlsen Airport


Time (UTC)DescriptionTempratureWindCloud coverageVisibilityPressureHumidity
18-Apr-2024 00:00Light Rain26°C9 mph, NE78%10000m1014hPa80%
18-Apr-2024 03:00Light Rain26°C7 mph, NE73%10000m1014hPa82%
18-Apr-2024 06:00Light Rain25°C7 mph, NE73%10000m1012hPa83%
18-Apr-2024 09:00Light Rain24°C4 mph, NE97%10000m1013hPa84%
18-Apr-2024 12:00Light Rain26°C4 mph, E82%10000m1014hPa76%
18-Apr-2024 15:00Light Rain28°C4 mph, NE62%10000m1014hPa64%
18-Apr-2024 18:00Light Rain28°C4 mph, NE48%10000m1012hPa67%
18-Apr-2024 21:00Light Rain27°C7 mph, NE60%10000m1012hPa72%
19-Apr-2024 00:00Light Rain26°C7 mph, NE80%10000m1013hPa76%
19-Apr-2024 03:00Light Rain25°C9 mph, NE61%10000m1014hPa79%
19-Apr-2024 06:00Light Rain25°C7 mph, E31%10000m1012hPa82%
19-Apr-2024 09:00Light Rain24°C2 mph, NE7%10000m1012hPa82%
19-Apr-2024 12:00Light Rain26°C4 mph, NE4%10000m1014hPa75%
19-Apr-2024 15:00Light Rain28°C4 mph, NE46%10000m1014hPa67%
19-Apr-2024 18:00Light Rain28°C7 mph, NE42%10000m1013hPa66%
19-Apr-2024 21:00Light Rain27°C7 mph, NE65%10000m1012hPa70%
20-Apr-2024 00:00Light Rain26°C9 mph, NE76%10000m1014hPa77%
20-Apr-2024 03:00Broken Clouds25°C11 mph, NE65%10000m1015hPa80%
20-Apr-2024 06:00Light Rain24°C11 mph, NE39%10000m1013hPa84%
20-Apr-2024 09:00Light Rain24°C9 mph, NE4%10000m1014hPa81%
20-Apr-2024 12:00Scattered Clouds26°C11 mph, NE34%10000m1015hPa74%
20-Apr-2024 15:00Light Rain27°C11 mph, NE65%10000m1016hPa69%
20-Apr-2024 18:00Light Rain27°C11 mph, NE72%10000m1014hPa71%
20-Apr-2024 21:00Light Rain27°C11 mph, NE96%10000m1013hPa74%
21-Apr-2024 00:00Overcast Clouds25°C11 mph, NE88%10000m1015hPa82%
21-Apr-2024 03:00Light Rain25°C9 mph, E54%10000m1016hPa82%
21-Apr-2024 06:00Light Rain24°C9 mph, NE42%10000m1014hPa85%
21-Apr-2024 09:00Light Rain24°C9 mph, NE51%10000m1014hPa86%
21-Apr-2024 12:00Light Rain26°C13 mph, NE76%10000m1016hPa77%
21-Apr-2024 15:00Light Rain28°C13 mph, E100%10000m1016hPa71%
21-Apr-2024 18:00Light Rain28°C13 mph, E100%10000m1014hPa69%
21-Apr-2024 21:00Light Rain27°C13 mph, E71%10000m1014hPa74%
22-Apr-2024 00:00Light Rain25°C13 mph, E46%10000m1015hPa82%
22-Apr-2024 03:00Light Rain25°C13 mph, E20%10000m1015hPa84%
22-Apr-2024 06:00Light Rain25°C11 mph, E32%10000m1014hPa86%
22-Apr-2024 09:00Light Rain25°C11 mph, E97%10000m1014hPa86%
22-Apr-2024 12:00Light Rain27°C13 mph, E74%10000m1015hPa77%
22-Apr-2024 15:00Light Rain28°C13 mph, E98%10000m1016hPa72%
22-Apr-2024 18:00Light Rain28°C13 mph, E88%10000m1014hPa71%
22-Apr-2024 21:00Light Rain27°C11 mph, E45%9676m1014hPa75%